{"data":{"norad_id":51112,"intl_designator":"2022-005J","name":"STARLINK-3374","alt_names":[],"object_type":"PAYLOAD","status":"ACTIVE","operator":null,"country":"US","launch_date":"2022-01-19","launch_site_code":"AFETR","launch_vehicle":null,"mission":null,"orbit_class":"UNKNOWN","rcs_meters":null,"size_class":null,"mass_kg":null,"dimensions":null,"purposes":["comms"],"wikipedia_slug":null,"has_3d_model":false,"image_url":null,"decayed_at":null,"tle_current":{"epoch":"2026-05-24T19:20:52.309536Z","epoch_age_seconds":98559,"freshness":"FRESH","line1":"1 51112U 22005J   26144.80616099 -.00000601  00000+0 -19694-4 0  9996","line2":"2 51112  53.2127 307.3906 0001548  93.5557 266.5612 15.08840491240376","mean_motion":15.08840491,"eccentricity":0.0001548,"inclination_deg":53.2127,"raan_deg":307.3906,"arg_perigee_deg":93.5557,"mean_anomaly_deg":266.5612,"bstar":-1.9694e-5,"rev_number":24037,"period_min":95.437523620911,"perigee_km":538.67100052205,"apogee_km":540.81277582583,"semimajor_km":6917.8788881739,"source":"CELESTRAK","updated_at":"2026-05-25T13:38:16.906739Z"}}}